Погода в Татьяновке

Россия / Томская область     56°49′18″N   83°33′32″E
темп.,
°C
ветер,
м/с
пор.,
м/с
влажн.,
%
обл.,
%
осадки,
мм/ч
давл.,
гПа
погр.,
м
16 апреля, пт
пт1601:00+4ююз41198100 0.2 1016459
04:00+4юз41098100 0.1 1013309
07:00+5юз51398100 0.1 1012496
10:00+7юз51599100 0.0 1009496
13:00+7зюз51298100 1.2 1009718
16:00+1с51196100 0.5 1012509
19:00+1с3998100 2.2 1015444
22:000зсз259571 0.3 101795
17 апреля, сб
сб1701:00−2с598861 0.3 1019572
04:00−4с488997 0.0 1021650
07:00−6ссв467515 0.2 1024616
10:00−4ссв23530 0.0 1024805
13:000сз11445 0.0 10241094
16:00+1зюз23458 0.0 10231365
19:00+1юз34575 0.0 10221259
22:00−3зюз28815 0.0 1022230
18 апреля, вс
вс1801:00−3ююз3975100 0.0 1020312
04:00−2ююз41074100 0.0 1017507
07:00−1ююз51375100 0.0 1014674
10:00+2ююз61270100 0.0 10111014
13:00+4ююз61370100 0.0 10081251
16:00+2ююз51295100 1.1 1006906
19:00+1ю51197100 2.1 1002811
22:000зсз2699100 3.4 1000567
19 апреля, пн
пн1901:00−5с81592100 6.7 1002924
04:00−7ссз81586100 1.1 1008970
07:00−10сз71482100 1.1 1014888
10:00−8сз71075100 0.0 1020956
13:00−5сз6761100 0.1 10231506
16:00−4сз5751100 0.1 10251938
19:00−4сз4761100 0.1 10261738
22:00−7зсз387743 0.0 1028346
20 апреля, вт
вт2001:00−9зсз38795 0.0 1029272
04:00−10з28895 0.0 1029258
07:00−9з27885 0.0 1030322
10:00−5зсз4561100 0.0 10301249
13:00−3з4650100 0.1 10281860
16:00−1зюз4654100 0.1 10271708
19:00−2зюз4764100 0.3 10251294
22:00−3юз3978100 0.0 1024601